Location: Chevoux
(46.3801°N, 4.9476°E)
Time: 04:48:35
(UTC+00:00)

Envisat - Pass Details

Date: 04 December 2021
Orbit: 764 x 766 km, 98.2° (Epoch: 16 January)

Event Time Altitude Azimuth Distance (km) Brightness Sun altitude
Rises 03:51:48 0° 23° (NNE) 3,244 6.5 -32.7°
Reaches altitude 10° 03:54:26 10° 35° (NE) 2,312 5.8 -32.3°
Maximum altitude 03:58:48 28° 94° (E) 1,398 4.9 -31.5°
Drops below altitude 10° 04:03:09 10° 153° (SSE) 2,296 5.7 -30.8°
Sets 04:05:44 0° 165° (SSE) 3,216 6.4 -30.3°
